| time (UTC) | temp C | wind direction | speed KPH | gust KPH | rain 1hr cm | rain 24hr cm | rain mn cm | humidity % | barometer mb |
| 20260510022537 | 24 | 134 | 3.2 | 4.8 | 0.00 | 0.05 | 0.05 | 73 | 1051.4 |
| 20260510022032 | 25 | 134 | 1.6 | 3.2 | 0.00 | 0.05 | 0.05 | 72 | 1051.3 |
| 20260510021529 | 25 | 134 | 1.6 | 1.6 | 0.00 | 0.05 | 0.05 | 71 | 1051.2 |
| 20260510021027 | 25 | 134 | 0.0 | 0.0 | 0.00 | 0.05 | 0.05 | 69 | 1051.1 |
| 20260510020521 | 25 | 134 | 0.0 | 0.0 | 0.00 | 0.05 | 0.05 | 68 | 1051.2 |
| 20260510020017 | 25 | 134 | 0.0 | 0.0 | 0.00 | 0.05 | 0.05 | 68 | 1051.1 |
| 20260510015512 | 25 | 134 | 0.0 | 0.0 | 0.00 | 0.05 | 0.05 | 67 | 1051.0 |
| 20260510015009 | 25 | 134 | 0.0 | 0.0 | 0.00 | 0.05 | 0.05 | 66 | 1051.0 |
| 20260510014506 | 25 | 134 | 0.0 | 0.0 | 0.00 | 0.05 | 0.05 | 66 | 1051.2 |
| 20260510014002 | 25 | 134 | 1.6 | 1.6 | 0.00 | 0.05 | 0.05 | 65 | 1050.8 |
| 20260510013456 | 26 | 134 | 1.6 | 3.2 | 0.00 | 0.05 | 0.05 | 64 | 1050.8 |
| 20260510012953 | 26 | 134 | 1.6 | 3.2 | 0.00 | 0.05 | 0.05 | 63 | 1050.6 |
| 20260510012448 | 26 | 134 | 1.6 | 3.2 | 0.00 | 0.05 | 0.05 | 63 | 1050.8 |
| 20260510011943 | 26 | 133 | 3.2 | 3.2 | 0.00 | 0.05 | 0.05 | 61 | 1050.8 |
| 20260510011438 | 26 | 134 | 1.6 | 3.2 | 0.00 | 0.05 | 0.05 | 60 | 1050.6 |
| 20260510010934 | 26 | 135 | 3.2 | 6.4 | 0.00 | 0.05 | 0.05 | 59 | 1050.7 |
| 20260510010431 | 27 | 132 | 4.8 | 6.4 | 0.00 | 0.05 | 0.05 | 58 | 1050.7 |
| 20260510005928 | 27 | 191 | 4.8 | 6.4 | 0.00 | 0.05 | 0.05 | 57 | 1050.6 |
| 20260510005423 | 27 | 159 | 4.8 | 9.7 | 0.00 | 0.05 | 0.05 | 56 | 1050.5 |
| 20260510004921 | 27 | 141 | 6.4 | 9.7 | 0.00 | 0.05 | 0.05 | 55 | 1050.5 |
| 20260510004418 | 27 | 202 | 4.8 | 6.4 | 0.00 | 0.05 | 0.05 | 54 | 1050.6 |
| 20260510003916 | 27 | 122 | 8.0 | 11.3 | 0.00 | 0.05 | 0.05 | 52 | 1050.5 |
| 20260510003413 | 28 | 121 | 9.7 | 12.9 | 0.00 | 0.05 | 0.05 | 52 | 1050.4 |
| 20260510002912 | 28 | 153 | 3.2 | 12.9 | 0.00 | 0.05 | 0.05 | 51 | 1050.3 |
| 20260510002409 | 28 | 134 | 4.8 | 11.3 | 0.00 | 0.05 | 0.05 | 50 | 1050.4 |
| 20260510001906 | 28 | 128 | 9.7 | 12.9 | 0.00 | 0.05 | 0.05 | 47 | 1050.1 |
| 20260510001403 | 28 | 132 | 8.0 | 14.5 | 0.00 | 0.05 | 0.05 | 48 | 1050.2 |
| 20260510000900 | 28 | 136 | 6.4 | 12.9 | 0.00 | 0.05 | 0.05 | 49 | 1050.1 |
| 20260510000357 | 28 | 142 | 12.9 | 14.5 | 0.00 | 0.05 | 0.05 | 48 | 1050.0 |
| 20260509235853 | 29 | 171 | 11.3 | 14.5 | 0.00 | 0.05 | 0.05 | 48 | 1049.9 |
| 20260509235350 | 29 | 122 | 6.4 | 16.1 | 0.00 | 0.05 | 0.05 | 49 | 1049.9 |
| 20260509234846 | 29 | 127 | 9.7 | 16.1 | 0.00 | 0.05 | 0.05 | 54 | 1049.9 |
| 20260509234343 | 29 | 134 | 14.5 | 16.1 | 0.00 | 0.05 | 0.05 | 56 | 1049.8 |
| 20260509233842 | 29 | 114 | 12.9 | 14.5 | 0.00 | 0.05 | 0.05 | 56 | 1049.7 |
| 20260509233339 | 29 | 118 | 8.0 | 22.5 | 0.00 | 0.05 | 0.05 | 57 | 1049.8 |
| 20260509232834 | 30 | 142 | 6.4 | 16.1 | 0.00 | 0.05 | 0.05 | 54 | 1049.7 |
| 20260509232333 | 30 | 126 | 12.9 | 24.1 | 0.00 | 0.05 | 0.05 | 50 | 1049.8 |
| 20260509231828 | 31 | 30 | 3.2 | 4.8 | 0.00 | 0.05 | 0.05 | 53 | 1049.6 |
| 20260509231325 | 31 | 38 | 0.0 | 3.2 | 0.00 | 0.05 | 0.05 | 52 | 1049.5 |
| 20260509230823 | 30 | 95 | 6.4 | 11.3 | 0.00 | 0.05 | 0.05 | 53 | 1049.6 |
| 20260509230320 | 30 | 124 | 3.2 | 6.4 | 0.00 | 0.05 | 0.05 | 55 | 1049.8 |
| 20260509225815 | 30 | 130 | 11.3 | 14.5 | 0.00 | 0.05 | 0.05 | 54 | 1049.7 |
| 20260509225312 | 30 | 129 | 6.4 | 9.7 | 0.00 | 0.05 | 0.05 | 53 | 1049.6 |
| 20260509224808 | 30 | 149 | 9.7 | 12.9 | 0.00 | 0.05 | 0.05 | 54 | 1049.6 |
| 20260509224304 | 31 | 108 | 6.4 | 11.3 | 0.00 | 0.05 | 0.05 | 54 | 1049.6 |
| 20260509223801 | 31 | 154 | 3.2 | 6.4 | 0.00 | 0.05 | 0.05 | 53 | 1049.6 |
| 20260509223259 | 30 | 72 | 1.6 | 4.8 | 0.00 | 0.05 | 0.05 | 56 | 1049.7 |
| 20260509222755 | 30 | 125 | 4.8 | 6.4 | 0.00 | 0.05 | 0.05 | 56 | 1049.5 |
| 20260509222250 | 30 | 138 | 8.0 | 12.9 | 0.00 | 0.05 | 0.05 | 56 | 1049.7 |
| 20260509221746 | 30 | 140 | 6.4 | 9.7 | 0.00 | 0.05 | 0.05 | 57 | 1049.7 |
| 20260509221243 | 30 | 148 | 4.8 | 11.3 | 0.00 | 0.05 | 0.05 | 57 | 1049.5 |
| 20260509220739 | 30 | 138 | 6.4 | 11.3 | 0.00 | 0.05 | 0.05 | 57 | 1049.6 |
| 20260509220236 | 30 | 121 | 11.3 | 12.9 | 0.00 | 0.05 | 0.05 | 57 | 1049.6 |
| 20260509215731 | 30 | 130 | 8.0 | 14.5 | 0.00 | 0.05 | 0.05 | 56 | 1049.6 |
| 20260509215228 | 29 | 77 | 1.6 | 11.3 | 0.00 | 0.05 | 0.05 | 58 | 1049.6 |
| 20260509214725 | 29 | 106 | 4.8 | 12.9 | 0.00 | 0.05 | 0.05 | 56 | 1049.8 |
| 20260509214222 | 28 | 143 | 9.7 | 16.1 | 0.00 | 0.05 | 0.05 | 56 | 1049.7 |
| 20260509213718 | 28 | 137 | 8.0 | 14.5 | 0.00 | 0.05 | 0.05 | 56 | 1050.0 |
| 20260509213214 | 28 | 152 | 8.0 | 17.7 | 0.00 | 0.05 | 0.05 | 55 | 1050.2 |
| 20260509212712 | 28 | 178 | 9.7 | 20.9 | 0.00 | 0.05 | 0.05 | 56 | 1050.3 |
| 20260509212208 | 28 | 125 | 16.1 | 24.1 | 0.00 | 0.05 | 0.05 | 56 | 1050.2 |
| 20260509211704 | 28 | 165 | 11.3 | 22.5 | 0.00 | 0.05 | 0.05 | 57 | 1050.2 |
| 20260509211201 | 28 | 118 | 14.5 | 17.7 | 0.00 | 0.05 | 0.05 | 61 | 1050.0 |
| 20260509210658 | 30 | 129 | 6.4 | 6.4 | 0.00 | 0.05 | 0.05 | 51 | 1050.1 |
| 20260509210155 | 31 | 41 | 1.6 | 3.2 | 0.00 | 0.05 | 0.05 | 51 | 1050.2 |
| 20260509205650 | 31 | 336 | 0.0 | 0.0 | 0.00 | 0.05 | 0.05 | 50 | 1050.3 |
| 20260509205150 | 32 | 332 | 1.6 | 1.6 | 0.00 | 0.05 | 0.05 | 51 | 1050.3 |
| 20260509204646 | 32 | 324 | 0.0 | 0.0 | 0.00 | 0.05 | 0.05 | 48 | 1050.4 |
| 20260509204142 | 32 | 322 | 0.0 | 3.2 | 0.00 | 0.05 | 0.05 | 50 | 1050.4 |
| 20260509203638 | 32 | 298 | 3.2 | 4.8 | 0.00 | 0.05 | 0.05 | 47 | 1050.6 |
| 20260509203132 | 32 | 298 | 1.6 | 6.4 | 0.00 | 0.05 | 0.05 | 50 | 1050.4 |
| 20260509202632 | 32 | 14 | 1.6 | 4.8 | 0.00 | 0.05 | 0.05 | 49 | 1050.6 |
| 20260509202127 | 33 | 213 | 3.2 | 4.8 | 0.00 | 0.05 | 0.05 | 48 | 1050.8 |
| 20260509201622 | 33 | 350 | 1.6 | 3.2 | 0.00 | 0.05 | 0.05 | 48 | 1050.8 |
| 20260509201120 | 32 | 298 | 1.6 | 6.4 | 0.00 | 0.05 | 0.05 | 49 | 1051.1 |
| 20260509200615 | 32 | 222 | 3.2 | 11.3 | 0.00 | 0.05 | 0.05 | 50 | 1050.7 |
| 20260509200111 | 32 | 45 | 0.0 | 3.2 | 0.00 | 0.05 | 0.05 | 48 | 1050.7 |
| 20260509195607 | 32 | 13 | 0.0 | 3.2 | 0.00 | 0.05 | 0.05 | 52 | 1051.0 |
| 20260509195102 | 32 | 350 | 0.0 | 4.8 | 0.00 | 0.05 | 0.05 | 52 | 1051.0 |
| 20260509194601 | 32 | 46 | 1.6 | 6.4 | 0.00 | 0.05 | 0.05 | 50 | 1050.8 |
| 20260509194059 | 32 | 300 | 4.8 | 12.9 | 0.00 | 0.05 | 0.05 | 51 | 1050.8 |
| 20260509193555 | 32 | 249 | 4.8 | 9.7 | 0.00 | 0.05 | 0.05 | 48 | 1051.0 |
| 20260509193051 | 31 | 320 | 0.0 | 4.8 | 0.00 | 0.05 | 0.05 | 52 | 1051.1 |
| 20260509192548 | 31 | 168 | 4.8 | 11.3 | 0.00 | 0.05 | 0.05 | 55 | 1051.2 |
| 20260509192042 | 32 | 338 | 3.2 | 12.9 | 0.00 | 0.05 | 0.05 | 53 | 1051.2 |
| 20260509191537 | 32 | 348 | 6.4 | 9.7 | 0.00 | 0.05 | 0.05 | 53 | 1051.3 |
| 20260509191033 | 32 | 314 | 4.8 | 6.4 | 0.00 | 0.05 | 0.05 | 54 | 1051.3 |
| 20260509190530 | 31 | 19 | 1.6 | 11.3 | 0.00 | 0.05 | 0.05 | 57 | 1051.4 |
| 20260509190029 | 31 | 359 | 1.6 | 3.2 | 0.00 | 0.05 | 0.05 | 57 | 1051.5 |
| 20260509185526 | 31 | 251 | 1.6 | 3.2 | 0.00 | 0.05 | 0.05 | 57 | 1051.5 |
| 20260509185022 | 32 | 247 | 1.6 | 4.8 | 0.00 | 0.05 | 0.05 | 56 | 1051.7 |
| 20260509184520 | 31 | 221 | 3.2 | 4.8 | 0.00 | 0.05 | 0.05 | 58 | 1051.9 |
| 20260509184016 | 31 | 244 | 6.4 | 9.7 | 0.00 | 0.05 | 0.05 | 58 | 1052.0 |
| 20260509183511 | 30 | 26 | 1.6 | 1.6 | 0.00 | 0.05 | 0.05 | 61 | 1052.0 |
| 20260509183008 | 30 | 26 | 1.6 | 3.2 | 0.00 | 0.05 | 0.05 | 62 | 1052.0 |
| 20260509182504 | 31 | 340 | 0.0 | 11.3 | 0.00 | 0.05 | 0.05 | 59 | 1052.3 |
| 20260509182001 | 31 | 348 | 1.6 | 1.6 | 0.00 | 0.05 | 0.05 | 59 | 1052.2 |
| 20260509181459 | 30 | 317 | 1.6 | 4.8 | 0.00 | 0.05 | 0.05 | 63 | 1052.3 |
| 20260509180956 | 30 | 15 | 0.0 | 3.2 | 0.00 | 0.05 | 0.05 | 62 | 1052.3 |
| 20260509180451 | 30 | 237 | 1.6 | 4.8 | 0.00 | 0.05 | 0.05 | 61 | 1052.2 |
| 20260509175949 | 30 | 260 | 1.6 | 3.2 | 0.00 | 0.05 | 0.05 | 63 | 1052.5 |
| 20260509175445 | 31 | 8 | 3.2 | 3.2 | 0.00 | 0.05 | 0.05 | 62 | 1052.4 |
| 20260509174941 | 30 | 283 | 3.2 | 4.8 | 0.00 | 0.05 | 0.05 | 63 | 1052.4 |
| 20260509174438 | 31 | 15 | 0.0 | 11.3 | 0.00 | 0.05 | 0.05 | 62 | 1052.7 |
| 20260509173933 | 30 | 94 | 0.0 | 4.8 | 0.00 | 0.05 | 0.05 | 65 | 1052.7 |
| 20260509173432 | 29 | 203 | 0.0 | 4.8 | 0.00 | 0.05 | 0.05 | 67 | 1052.8 |
| 20260509172929 | 29 | 259 | 3.2 | 4.8 | 0.00 | 0.05 | 0.05 | 67 | 1052.8 |
| 20260509172426 | 30 | 314 | 3.2 | 4.8 | 0.00 | 0.05 | 0.05 | 67 | 1052.7 |
| 20260509171922 | 29 | 351 | 3.2 | 9.7 | 0.00 | 0.05 | 0.05 | 67 | 1052.7 |
| 20260509171418 | 28 | 276 | 3.2 | 6.4 | 0.00 | 0.05 | 0.05 | 72 | 1052.7 |
| 20260509170915 | 28 | 123 | 1.6 | 6.4 | 0.00 | 0.05 | 0.05 | 69 | 1052.7 |
| 20260509170410 | 28 | 157 | 3.2 | 6.4 | 0.00 | 0.05 | 0.05 | 70 | 1052.7 |
| 20260509165907 | 29 | 333 | 0.0 | 0.0 | 0.00 | 0.05 | 0.05 | 69 | 1052.7 |
| 20260509165400 | 28 | 266 | 4.8 | 6.4 | 0.00 | 0.05 | 0.05 | 71 | 1052.9 |
| 20260509164856 | 28 | 230 | 6.4 | 12.9 | 0.00 | 0.05 | 0.05 | 72 | 1052.9 |
| 20260509164352 | 28 | 340 | 6.4 | 9.7 | 0.00 | 0.05 | 0.05 | 71 | 1052.9 |
| 20260509163849 | 27 | 302 | 3.2 | 6.4 | 0.00 | 0.05 | 0.05 | 74 | 1052.8 |
| 20260509163346 | 27 | 249 | 4.8 | 9.7 | 0.00 | 0.05 | 0.05 | 75 | 1052.8 |
| 20260509162845 | 27 | 243 | 8.0 | 12.9 | 0.00 | 0.05 | 0.05 | 75 | 1053.0 |
| 20260509162344 | 26 | 231 | 1.6 | 6.4 | 0.00 | 0.05 | 0.05 | 77 | 1052.9 |
| 20260509161840 | 26 | 208 | 6.4 | 9.7 | 0.00 | 0.05 | 0.05 | 76 | 1052.8 |
| 20260509161336 | 27 | 257 | 3.2 | 3.2 | 0.00 | 0.05 | 0.05 | 76 | 1052.8 |
| 20260509160832 | 26 | 246 | 4.8 | 4.8 | 0.00 | 0.05 | 0.05 | 79 | 1052.9 |
| 20260509160328 | 26 | 211 | 3.2 | 6.4 | 0.00 | 0.05 | 0.05 | 82 | 1052.8 |
| 20260509155823 | 25 | 240 | 1.6 | 6.4 | 0.00 | 0.05 | 0.05 | 85 | 1053.0 |
| 20260509155320 | 25 | 255 | 1.6 | 9.7 | 0.00 | 0.05 | 0.05 | 88 | 1053.1 |
| 20260509154817 | 25 | 203 | 3.2 | 9.7 | 0.00 | 0.05 | 0.05 | 90 | 1053.3 |
| 20260509154313 | 24 | 228 | 6.4 | 12.9 | 0.00 | 0.05 | 0.05 | 91 | 1053.0 |
| 20260509153810 | 24 | 245 | 6.4 | 12.9 | 0.00 | 0.05 | 0.05 | 90 | 1053.4 |
| 20260509153306 | 23 | 196 | 4.8 | 12.9 | 0.00 | 0.05 | 0.05 | 93 | 1053.2 |
| 20260509152803 | 23 | 199 | 6.4 | 14.5 | 0.00 | 0.05 | 0.05 | 93 | 1053.3 |
| 20260509152259 | 24 | 204 | 6.4 | 11.3 | 0.00 | 0.05 | 0.05 | 92 | 1053.2 |
| 20260509151757 | 23 | 234 | 6.4 | 12.9 | 0.00 | 0.05 | 0.05 | 94 | 1053.2 |
| 20260509151253 | 23 | 157 | 1.6 | 9.7 | 0.00 | 0.05 | 0.05 | 96 | 1053.1 |
| 20260509150752 | 22 | 188 | 3.2 | 9.7 | 0.00 | 0.05 | 0.05 | 96 | 1053.1 |
| 20260509150249 | 22 | 175 | 3.2 | 11.3 | 0.00 | 0.05 | 0.05 | 96 | 1053.0 |
| 20260509145746 | 22 | 182 | 4.8 | 6.4 | 0.00 | 0.05 | 0.05 | 97 | 1053.0 |
| 20260509145245 | 22 | 205 | 6.4 | 9.7 | 0.00 | 0.05 | 0.05 | 98 | 1052.9 |
| 20260509144743 | 22 | 197 | 0.0 | 4.8 | 0.00 | 0.05 | 0.05 | 99 | 1052.8 |
| 20260509144239 | 22 | 135 | 6.4 | 11.3 | 0.00 | 0.05 | 0.05 | 99 | 1052.6 |
| 20260509143736 | 22 | 190 | 9.7 | 12.9 | 0.00 | 0.05 | 0.05 | 99 | 1052.5 |
| 20260509143234 | 22 | 156 | 12.9 | 16.1 | 0.00 | 0.05 | 0.05 | 99 | 1052.6 |
| 20260509142730 | 22 | 149 | 6.4 | 9.7 | 0.00 | 0.05 | 0.05 | 99 | 1052.4 |
| 20260509142226 | 22 | 186 | 6.4 | 6.4 | 0.00 | 0.05 | 0.05 | 99 | 1052.4 |
| 20260509141722 | 22 | 174 | 3.2 | 11.3 | 0.00 | 0.05 | 0.05 | 99 | 1052.3 |
| 20260509141219 | 22 | 126 | 4.8 | 6.4 | 0.00 | 0.05 | 0.05 | 99 | 1052.0 |
| 20260509140715 | 22 | 188 | 6.4 | 11.3 | 0.00 | 0.05 | 0.05 | 99 | 1052.1 |
| 20260509140213 | 21 | 153 | 1.6 | 11.3 | 0.00 | 0.05 | 0.05 | 99 | 1051.9 |
| 20260509135710 | 22 | 172 | 3.2 | 4.8 | 0.00 | 0.05 | 0.05 | 99 | 1052.2 |
| 20260509135208 | 21 | 170 | 0.0 | 4.8 | 0.00 | 0.05 | 0.05 | 99 | 1051.9 |
| 20260509134704 | 21 | 132 | 3.2 | 4.8 | 0.00 | 0.05 | 0.05 | 99 | 1052.2 |
| 20260509134202 | 21 | 161 | 1.6 | 4.8 | 0.00 | 0.05 | 0.05 | 99 | 1052.4 |
| 20260509133659 | 21 | 7 | 3.2 | 3.2 | 0.00 | 0.05 | 0.05 | 99 | 1052.5 |
| 20260509133156 | 21 | 8 | 0.0 | 0.0 | 0.00 | 0.05 | 0.05 | 99 | 1052.8 |
| 20260509132654 | 21 | 17 | 1.6 | 3.2 | 0.00 | 0.05 | 0.05 | 99 | 1052.8 |
| 20260509132153 | 21 | 23 | 4.8 | 6.4 | 0.00 | 0.05 | 0.05 | 99 | 1052.9 |
| 20260509131648 | 21 | 8 | 1.6 | 6.4 | 0.00 | 0.05 | 0.05 | 99 | 1052.9 |
| 20260509131145 | 21 | 19 | 0.0 | 0.0 | 0.00 | 0.05 | 0.05 | 99 | 1052.7 |
| 20260509130641 | 21 | 19 | 0.0 | 0.0 | 0.00 | 0.05 | 0.05 | 99 | 1052.7 |
| 20260509130138 | 21 | 23 | 0.0 | 0.0 | 0.00 | 0.05 | 0.05 | 99 | 1052.6 |
| 20260509125634 | 21 | 35 | 0.0 | 1.6 | 0.00 | 0.05 | 0.05 | 99 | 1052.6 |
| 20260509125131 | 21 | 35 | 1.6 | 1.6 | 0.00 | 0.05 | 0.05 | 99 | 1052.5 |
| 20260509124627 | 21 | 35 | 0.0 | 0.0 | 0.00 | 0.05 | 0.05 | 99 | 1052.6 |
| 20260509124125 | 21 | 35 | 0.0 | 0.0 | 0.00 | 0.05 | 0.05 | 99 | 1052.4 |
| 20260509123623 | 21 | 35 | 0.0 | 0.0 | 0.00 | 0.05 | 0.05 | 99 | 1052.4 |
| 20260509123119 | 21 | 35 | 0.0 | 0.0 | 0.00 | 0.05 | 0.05 | 99 | 1052.5 |
| 20260509122615 | 21 | 35 | 0.0 | 1.6 | 0.00 | 0.05 | 0.05 | 99 | 1052.4 |
| 20260509122113 | 21 | 35 | 0.0 | 1.6 | 0.00 | 0.05 | 0.05 | 99 | 1052.7 |
| 20260509121609 | 21 | 36 | 1.6 | 3.2 | 0.00 | 0.05 | 0.05 | 99 | 1052.4 |
| 20260509121106 | 21 | 35 | 0.0 | 0.0 | 0.00 | 0.05 | 0.05 | 99 | 1052.6 |
| 20260509120604 | 21 | 35 | 0.0 | 0.0 | 0.00 | 0.05 | 0.05 | 99 | 1052.3 |
| 20260509115559 | 21 | 35 | 0.0 | 0.0 | 0.00 | 0.05 | 0.05 | 99 | 1052.4 |
| 20260509115057 | 21 | 36 | 0.0 | 0.0 | 0.00 | 0.05 | 0.05 | 99 | 1052.4 |
| 20260509114555 | 21 | 36 | 0.0 | 0.0 | 0.00 | 0.05 | 0.05 | 99 | 1052.6 |
| 20260509114054 | 21 | 36 | 0.0 | 0.0 | 0.00 | 0.05 | 0.05 | 99 | 1052.7 |
| 20260509113552 | 21 | 35 | 0.0 | 0.0 | 0.00 | 0.05 | 0.05 | 99 | 1053.0 |
| 20260509113049 | 21 | 35 | 1.6 | 1.6 | 0.00 | 0.05 | 0.05 | 99 | 1053.2 |
| 20260509112545 | 21 | 36 | 0.0 | 0.0 | 0.00 | 0.05 | 0.05 | 99 | 1053.4 |
| 20260509112042 | 21 | 36 | 0.0 | 3.2 | 0.00 | 0.05 | 0.05 | 99 | 1053.2 |
| 20260509111540 | 21 | 58 | 0.0 | 0.0 | 0.00 | 0.05 | 0.05 | 99 | 1053.1 |
| 20260509111036 | 21 | 43 | 3.2 | 4.8 | 0.00 | 0.05 | 0.05 | 99 | 1053.4 |
| 20260509110533 | 21 | 40 | 0.0 | 3.2 | 0.00 | 0.05 | 0.05 | 99 | 1053.2 |
| 20260509110030 | 21 | 33 | 0.0 | 3.2 | 0.00 | 0.05 | 0.05 | 99 | 1053.5 |
| 20260509105529 | 21 | 40 | 1.6 | 1.6 | 0.00 | 0.05 | 0.05 | 99 | 1053.2 |
| 20260509105026 | 21 | 40 | 1.6 | 4.8 | 0.00 | 0.05 | 0.05 | 99 | 1053.6 |
| 20260509104523 | 21 | 94 | 0.0 | 0.0 | 0.00 | 0.05 | 0.05 | 99 | 1053.3 |
| 20260509104020 | 21 | 94 | 0.0 | 1.6 | 0.00 | 0.05 | 0.05 | 99 | 1053.5 |
| 20260509103517 | 21 | 94 | 1.6 | 1.6 | 0.00 | 0.05 | 0.05 | 99 | 1053.4 |
| 20260509103015 | 21 | 94 | 0.0 | 1.6 | 0.00 | 0.05 | 0.05 | 99 | 1053.2 |
| 20260509102513 | 21 | 94 | 0.0 | 0.0 | 0.00 | 0.05 | 0.05 | 99 | 1053.1 |
| 20260509102009 | 21 | 94 | 0.0 | 0.0 | 0.00 | 0.05 | 0.05 | 99 | 1052.9 |
| 20260509101506 | 21 | 94 | 0.0 | 1.6 | 0.00 | 0.05 | 0.05 | 99 | 1052.9 |
| 20260509101003 | 21 | 94 | 0.0 | 0.0 | 0.00 | 0.05 | 0.05 | 99 | 1052.5 |
| 20260509100500 | 21 | 94 | 1.6 | 3.2 | 0.00 | 0.05 | 0.05 | 99 | 1052.4 |
| 20260509095956 | 21 | 94 | 1.6 | 3.2 | 0.00 | 0.05 | 0.05 | 99 | 1052.3 |
| 20260509095453 | 21 | 94 | 0.0 | 3.2 | 0.00 | 0.05 | 0.05 | 99 | 1052.1 |
| 20260509094950 | 21 | 92 | 1.6 | 3.2 | 0.00 | 0.05 | 0.05 | 99 | 1052.1 |
| 20260509094446 | 21 | 84 | 1.6 | 3.2 | 0.00 | 0.05 | 0.05 | 99 | 1051.9 |
| 20260509093944 | 21 | 68 | 1.6 | 3.2 | 0.00 | 0.05 | 0.05 | 99 | 1051.9 |
| 20260509093442 | 21 | 68 | 0.0 | 0.0 | 0.00 | 0.05 | 0.05 | 99 | 1052.0 |
| 20260509092939 | 21 | 68 | 1.6 | 3.2 | 0.00 | 0.05 | 0.05 | 99 | 1052.1 |
| 20260509092437 | 21 | 68 | 1.6 | 3.2 | 0.00 | 0.05 | 0.05 | 99 | 1051.9 |
| 20260509091936 | 21 | 68 | 0.0 | 0.0 | 0.00 | 0.05 | 0.05 | 99 | 1051.8 |
| 20260509091432 | 21 | 68 | 0.0 | 0.0 | 0.00 | 0.05 | 0.05 | 99 | 1051.7 |
| 20260509090929 | 21 | 68 | 0.0 | 3.2 | 0.00 | 0.05 | 0.05 | 99 | 1051.7 |
| 20260509090426 | 21 | 67 | 0.0 | 0.0 | 0.18 | 0.05 | 0.05 | 99 | 1051.8 |
| 20260509085924 | 21 | 67 | 0.0 | 0.0 | 0.18 | 0.05 | 0.05 | 99 | 1051.8 |
| 20260509085421 | 21 | 68 | 0.0 | 1.6 | 0.00 | 0.03 | 0.03 | 99 | 1051.8 |
| 20260509084917 | 21 | 67 | 0.0 | 3.2 | 0.00 | 0.03 | 0.03 | 99 | 1051.9 |
| 20260509084414 | 21 | 67 | 0.0 | 1.6 | 0.00 | 0.03 | 0.03 | 99 | 1052.2 |
| 20260509083912 | 21 | 67 | 0.0 | 0.0 | 0.18 | 0.03 | 0.03 | 99 | 1052.1 |
| 20260509083409 | 21 | 67 | 0.0 | 0.0 | 0.18 | 0.03 | 0.03 | 99 | 1052.1 |
| 20260509082905 | 21 | 67 | 0.0 | 1.6 | 0.00 | 0.00 | 0.00 | 99 | 1052.3 |
| 20260509082403 | 21 | 69 | 3.2 | 4.8 | 0.00 | 0.00 | 0.00 | 99 | 1052.2 |
| 20260509081859 | 21 | 137 | 0.0 | 0.0 | 0.00 | 0.00 | 0.00 | 99 | 1052.3 |
| 20260509081356 | 21 | 137 | 0.0 | 0.0 | 0.00 | 0.00 | 0.00 | 99 | 1052.2 |
| 20260509080854 | 21 | 137 | 0.0 | 0.0 | 0.00 | 0.00 | 0.00 | 99 | 1052.1 |
| 20260509080352 | 21 | 137 | 0.0 | 0.0 | 0.00 | 0.00 | 0.00 | 99 | 1052.3 |
| 20260509075850 | 21 | 137 | 0.0 | 0.0 | 0.00 | 0.00 | 0.00 | 99 | 1052.1 |
| 20260509075347 | 21 | 137 | 0.0 | 0.0 | 0.00 | 0.00 | 0.00 | 99 | 1052.2 |
| 20260509074844 | 21 | 137 | 0.0 | 0.0 | 0.00 | 0.00 | 0.00 | 99 | 1051.9 |
| 20260509074342 | 21 | 137 | 0.0 | 1.6 | 0.00 | 0.00 | 0.00 | 99 | 1052.0 |
| 20260509073837 | 21 | 137 | 0.0 | 0.0 | 0.00 | 0.00 | 0.00 | 99 | 1052.1 |
| 20260509073334 | 21 | 137 | 1.6 | 1.6 | 0.00 | 0.00 | 0.00 | 99 | 1052.1 |
| 20260509072831 | 21 | 137 | 0.0 | 3.2 | 0.00 | 0.00 | 0.00 | 98 | 1052.3 |
| 20260509072327 | 21 | 137 | 0.0 | 3.2 | 0.00 | 0.00 | 0.00 | 98 | 1052.0 |
| 20260509071824 | 21 | 137 | 1.6 | 3.2 | 0.00 | 0.00 | 0.00 | 98 | 1052.0 |
| 20260509071321 | 21 | 137 | 0.0 | 3.2 | 0.00 | 0.00 | 0.00 | 98 | 1052.2 |
| 20260509070818 | 22 | 137 | 3.2 | 4.8 | 0.00 | 0.00 | 0.00 | 98 | 1052.2 |
| 20260509070315 | 22 | 137 | 1.6 | 4.8 | 0.00 | 0.00 | 0.00 | 98 | 1052.2 |
| 20260509065811 | 22 | 142 | 1.6 | 3.2 | 0.00 | 0.00 | 0.00 | 98 | 1052.2 |
| 20260509065307 | 22 | 137 | 1.6 | 3.2 | 0.00 | 0.00 | 0.00 | 98 | 1052.3 |
| 20260509064803 | 22 | 123 | 1.6 | 3.2 | 0.00 | 0.00 | 0.00 | 98 | 1052.2 |
| 20260509064301 | 22 | 170 | 3.2 | 6.4 | 0.00 | 0.00 | 0.00 | 97 | 1052.2 |
| 20260509063759 | 22 | 165 | 0.0 | 0.0 | 0.00 | 0.00 | 0.00 | 97 | 1052.3 |
| 20260509063255 | 22 | 140 | 6.4 | 6.4 | 0.00 | 0.00 | 0.00 | 97 | 1051.8 |
| 20260509062752 | 22 | 143 | 0.0 | 3.2 | 0.00 | 0.00 | 0.00 | 97 | 1052.0 |
| 20260509062249 | 22 | 162 | 6.4 | 6.4 | 0.00 | 0.00 | 0.00 | 97 | 1051.8 |
| 20260509061746 | 22 | 148 | 4.8 | 6.4 | 0.00 | 0.00 | 0.00 | 97 | 1052.0 |
| 20260509061244 | 22 | 193 | 3.2 | 6.4 | 0.00 | 0.00 | 0.00 | 97 | 1052.1 |
| 20260509060741 | 22 | 132 | 0.0 | 4.8 | 0.00 | 0.00 | 0.00 | 97 | 1052.0 |
| 20260509060237 | 21 | 178 | 3.2 | 4.8 | 0.00 | 0.00 | 0.00 | 97 | 1051.8 |
| 20260509055733 | 21 | 140 | 1.6 | 9.7 | 0.00 | 0.00 | 0.00 | 97 | 1051.9 |
| 20260509055229 | 21 | 216 | 3.2 | 11.3 | 0.00 | 0.00 | 0.00 | 97 | 1051.9 |
| 20260509054726 | 21 | 194 | 3.2 | 4.8 | 0.00 | 0.00 | 0.00 | 97 | 1051.8 |
| 20260509054223 | 21 | 191 | 4.8 | 6.4 | 0.00 | 0.00 | 0.00 | 97 | 1051.8 |
| 20260509053721 | 21 | 177 | 1.6 | 4.8 | 0.00 | 0.00 | 0.00 | 97 | 1051.8 |
| 20260509053218 | 21 | 202 | 4.8 | 6.4 | 0.00 | 0.00 | 0.00 | 98 | 1051.8 |
| 20260509052716 | 21 | 183 | 4.8 | 9.7 | 0.00 | 0.00 | 0.00 | 98 | 1051.9 |
| 20260509052213 | 21 | 173 | 4.8 | 9.7 | 0.00 | 0.00 | 0.00 | 99 | 1051.9 |
| 20260509051711 | 21 | 211 | 6.4 | 9.7 | 0.00 | 0.00 | 0.00 | 99 | 1051.7 |
| 20260509051208 | 21 | 185 | 1.6 | 6.4 | 0.00 | 0.00 | 0.00 | 99 | 1051.9 |
| 20260509050705 | 20 | 138 | 1.6 | 1.6 | 0.00 | 0.00 | 0.00 | 99 | 1051.7 |
| 20260509050202 | 20 | 138 | 0.0 | 1.6 | 0.00 | 0.00 | 0.00 | 99 | 1051.5 |
| 20260509045659 | 21 | 138 | 1.6 | 4.8 | 0.00 | 0.00 | 0.00 | 99 | 1051.4 |
| 20260509045156 | 21 | 138 | 3.2 | 4.8 | 0.00 | 0.00 | 0.00 | 98 | 1051.2 |
| 20260509044653 | 21 | 137 | 3.2 | 6.4 | 0.00 | 0.00 | 0.00 | 98 | 1051.2 |
| 20260509044150 | 21 | 165 | 3.2 | 6.4 | 0.00 | 0.00 | 0.00 | 98 | 1051.4 |
| 20260509043647 | 21 | 165 | 1.6 | 3.2 | 0.00 | 0.00 | 0.00 | 97 | 1051.4 |
| 20260509043142 | 21 | 165 | 0.0 | 3.2 | 0.00 | 0.00 | 0.00 | 97 | 1051.4 |
| 20260509042639 | 21 | 160 | 1.6 | 3.2 | 0.00 | 0.00 | 0.00 | 97 | 1051.5 |
| 20260509042135 | 21 | 167 | 1.6 | 4.8 | 0.00 | 0.00 | 0.00 | 97 | 1051.6 |
| 20260509041632 | 21 | 165 | 3.2 | 6.4 | 0.00 | 0.00 | 0.00 | 96 | 1051.4 |
| 20260509041129 | 21 | 176 | 3.2 | 4.8 | 0.00 | 0.00 | 0.00 | 96 | 1051.8 |
| 20260509040628 | 21 | 173 | 3.2 | 9.7 | 0.00 | 0.00 | 0.00 | 96 | 1051.6 |
| 20260509040124 | 21 | 170 | 3.2 | 6.4 | 0.00 | 0.00 | 0.00 | 95 | 1051.7 |
| 20260509035621 | 21 | 179 | 1.6 | 9.7 | 0.00 | 0.00 | 0.00 | 95 | 1051.8 |
| 20260509035118 | 21 | 175 | 1.6 | 4.8 | 0.00 | 0.00 | 0.00 | 95 | 1051.8 |
| 20260509034616 | 21 | 151 | 3.2 | 6.4 | 0.00 | 0.00 | 0.00 | 95 | 1051.9 |
| 20260509034112 | 21 | 169 | 1.6 | 4.8 | 0.00 | 0.00 | 0.00 | 95 | 1051.7 |
| 20260509033609 | 21 | 182 | 3.2 | 3.2 | 0.00 | 0.00 | 0.00 | 95 | 1051.8 |
| 20260509033106 | 21 | 182 | 3.2 | 4.8 | 0.00 | 0.00 | 0.00 | 95 | 1051.9 |
| 20260509032604 | 21 | 188 | 3.2 | 3.2 | 0.00 | 0.00 | 0.00 | 95 | 1051.7 |
| 20260509032100 | 21 | 188 | 0.0 | 0.0 | 0.00 | 0.00 | 0.00 | 95 | 1051.9 |
| 20260509031558 | 21 | 188 | 0.0 | 0.0 | 0.00 | 0.00 | 0.00 | 94 | 1051.9 |
| 20260509031055 | 21 | 188 | 0.0 | 0.0 | 0.00 | 0.00 | 0.00 | 94 | 1051.7 |
| 20260509030554 | 21 | 188 | 3.2 | 4.8 | 0.00 | 0.00 | 0.00 | 94 | 1051.7 |
| 20260509030050 | 22 | 187 | 0.0 | 0.0 | 0.00 | 0.00 | 0.00 | 94 | 1051.6 |
| 20260509025546 | 22 | 188 | 0.0 | 3.2 | 0.00 | 0.00 | 0.00 | 93 | 1051.5 |
| 20260509025042 | 22 | 183 | 1.6 | 6.4 | 0.00 | 0.00 | 0.00 | 93 | 1051.2 |
| 20260509024538 | 22 | 154 | 3.2 | 4.8 | 0.00 | 0.00 | 0.00 | 93 | 1051.0 |
| 20260509024034 | 22 | 167 | 4.8 | 9.7 | 0.00 | 0.00 | 0.00 | 92 | 1051.1 |
| 20260509023532 | 22 | 158 | 4.8 | 4.8 | 0.00 | 0.00 | 0.00 | 92 | 1051.2 |
| 20260509023028 | 22 | 168 | 4.8 | 6.4 | 0.00 | 0.00 | 0.00 | 92 | 1051.1 |